Location: Rowland
(34.5359°N, 79.2929°W)
Time: 19:24:41
(UTC+00:00)

Transit 2A - Pass Details

Date: 09 October 2022
Orbit: 598 x 959 km, 66.7° (Epoch: 03 December)

Event Time Altitude Azimuth Distance (km) Brightness Sun altitude
Rises 02:06:24 0° 199° (SSW) 2,964 - -40.2°
Reaches altitude 10° 02:08:45 10° 197° (SSW) 2,015 - -40.6°
Maximum altitude 02:13:12 67° 115° (ESE) 661 - -41.4°
Drops below altitude 10° 02:17:30 10° 32° (NNE) 1,941 - -42.2°
Sets 02:19:44 0° 30° (NNE) 2,844 - -42.6°
